"Time","Temp","Dewpoint","Humidity","Pressure","Direction","Speed","Gust","Precip","PrecipRate"
"00:04:56","49.3","34.3","56","30.13","293","4","9.2","0.00","0.00"
"00:09:57","49.3","34.3","56","30.13","283","3.1","10.4","0.00","0.00"
"00:14:56","49.3","34.3","56","30.13","310","3.8","10.4","0.00","0.00"
"00:19:58","49.1","34.2","56.2","30.13","313","4.1","7","0.00","0.00"
"00:24:56","49","34.3","56.6","30.13","308","4.6","11.5","0.00","0.00"
"00:29:58","48.9","34","56.2","30.14","335","5.2","10.4","0.00","0.00"
"00:34:59","48.8","33.8","56","30.14","322","4.8","10.4","0.00","0.00"
"00:39:58","48.7","33.7","56","30.14","312","4.3","11","0.00","0.00"
"00:44:56","48.6","33.6","56","30.14","314","4.1","9.2","0.00","0.00"
"00:49:57","48.5","33.5","56","30.14","312","3.6","9.2","0.00","0.00"
"00:54:59","48.3","33.3","56","30.14","312","2.8","5","0.00","0.00"
"00:59:57","48.1","33.1","56","30.14","287","2.5","6","0.00","0.00"
"01:04:55","47.8","33.1","56.5","30.14","299","1.4","5","0.00","0.00"
"01:09:57","47.5","32.9","56.7","30.14","286","1.5","4.6","0.00","0.00"
"01:14:59","47.2","32.6","56.8","30.15","301","1.9","5","0.00","0.00"
"01:19:57","46.8","32.4","57.2","30.15","281","1.4","4","0.00","0.00"
"01:24:59","46.8","32","56.2","30.15","332","2.2","5","0.00","0.00"
"01:29:57","47","31.8","55.4","30.15","265","1.9","3.5","0.00","0.00"
"01:34:59","47.2","31.5","54.3","30.15","285","2.3","6","0.00","0.00"
"01:39:58","47.3","31.5","54.1","30.15","312","2.2","7","0.00","0.00"
"01:44:56","47.4","31.1","53","30.15","311","1.7","6.9","0.00","0.00"
"01:49:58","47.5","31.3","53.4","30.15","311","0.8","4","0.00","0.00"
"01:54:56","47.1","31.4","54.2","30.15","311","1.4","3.5","0.00","0.00"
"01:59:58","46.7","31.2","54.6","30.16","293","1.2","4","0.00","0.00"
"02:04:59","46.3","31","54.9","30.16","298","1.2","5","0.00","0.00"
"02:09:57","46.2","30.4","53.8","30.16","298","3.5","7","0.00","0.00"
"02:14:59","46.6","30.5","53.3","30.16","314","2.6","5.8","0.00","0.00"
"02:19:57","46.7","30.2","52.5","30.16","331","2.5","6","0.00","0.00"
"02:24:59","46.7","29.8","51.5","30.16","339","2.8","7","0.00","0.00"
"02:29:57","46.8","29.6","51","30.16","346","2.3","5.8","0.00","0.00"
"02:34:59","46.8","29.6","51","30.16","327","3.4","8.1","0.00","0.00"
"02:39:57","46.8","29.6","50.9","30.16","320","2.8","5","0.00","0.00"
"02:44:59","46.9","29.6","50.7","30.16","303","3.4","9.2","0.00","0.00"
"02:49:57","47","29.4","50.1","30.16","316","3.5","6","0.00","0.00"
"02:54:59","47.1","29.4","50","30.16","308","4.1","9","0.00","0.00"
"02:59:57","47.3","29.6","50","30.16","321","5.1","13","0.00","0.00"
"03:04:58","47.4","29.7","50","30.15","315","4.9","12","0.00","0.00"
"03:09:56","47.4","29.7","50","30.15","324","4.9","10.4","0.00","0.00"
"03:14:59","47.4","29.5","49.7","30.15","319","5.6","13","0.00","0.00"
"03:19:57","47.6","29.4","49","30.15","302","5.6","12.7","0.00","0.00"
"03:24:58","47.9","29.1","48.1","30.15","315","5.8","17.3","0.00","0.00"
"03:29:56","48","29.1","47.8","30.15","317","6.4","13","0.00","0.00"
"03:34:58","48.1","29","47.4","30.15","316","4","11.5","0.00","0.00"
"03:39:56","48","28.9","47.5","30.15","330","4.6","10.4","0.00","0.00"
"03:44:58","47.9","29.1","48","30.16","320","3.9","10.4","0.00","0.00"
"03:49:56","47.7","28.9","48","30.16","310","3.3","9.2","0.00","0.00"
"03:54:58","47.5","29","48.4","30.16","301","3.8","9.2","0.00","0.00"
"03:59:56","47.4","29.2","49","30.17","317","3.1","9.2","0.00","0.00"
"04:04:57","47.3","29.2","49.3","30.17","297","3.2","9","0.00","0.00"
"04:09:58","47.1","29.4","50","30.17","320","4.2","11.5","0.00","0.00"
"04:14:57","46.9","29.2","50","30.17","313","3.2","10.4","0.00","0.00"
"04:19:59","46.8","29.5","50.8","30.17","314","3","10.4","0.00","0.00"
"04:24:58","46.7","29.4","50.8","30.17","320","3","12","0.00","0.00"
"04:29:59","46.7","29.5","50.9","30.17","325","3.2","11.5","0.00","0.00"
"04:34:57","46.6","29.4","51","30.17","342","3.5","11.5","0.00","0.00"
"04:39:56","46.5","29.4","51.2","30.17","324","2.4","7","0.00","0.00"
"04:44:57","46.4","29.3","51.2","30.17","300","3.4","9.2","0.00","0.00"
"04:49:59","46.4","29.5","51.7","30.17","310","2.7","7","0.00","0.00"
"04:54:57","46.4","29.6","51.8","30.17","322","2.1","4.6","0.00","0.00"
"04:59:59","46.3","29.6","52","30.18","334","1.9","4","0.00","0.00"
"05:04:56","46.1","29.4","52","30.18","330","1.7","5","0.00","0.00"
"05:09:58","46","29.6","52.5","30.18","320","2.5","7","0.00","0.00"
"05:14:57","46","29.8","53","30.19","293","2.1","6.9","0.00","0.00"
"05:19:58","46","29.8","53.2","30.19","291","2","5","0.00","0.00"
"05:24:56","46","30.2","53.7","30.19","298","2.5","6","0.00","0.00"
"05:29:58","46.2","30.3","53.6","30.19","287","2.1","7","0.00","0.00"
"05:34:59","46.3","30.4","53.8","30.19","321","2.3","6.9","0.00","0.00"
"05:39:58","46.2","30.5","54","30.19","327","0.9","3.5","0.00","0.00"
"05:44:56","46.1","30.4","54","30.20","297","1.5","3.5","0.00","0.00"
"05:49:58","46","30.5","54.6","30.20","324","1.7","4","0.00","0.00"
"05:54:59","45.9","30.6","55","30.20","284","0.9","3.5","0.00","0.00"
"05:59:58","45.7","30.6","55.3","30.21","294","0.3","2.3","0.00","0.00"
"06:04:55","45.5","30.6","55.8","30.21","294","0","0","0.00","0.00"
"06:09:58","45.1","30.4","56.1","30.21","294","0","0","0.00","0.00"
"06:14:57","44.7","30.6","57.6","30.21","294","0","0","0.00","0.00"
"06:19:59","44","30.3","58.5","30.21","294","0","0","0.00","0.00"
"06:24:57","43.3","30.1","59.5","30.21","294","0","0","0.00","0.00"
"06:29:59","42.6","29.9","60.5","30.22","294","0","0","0.00","0.00"
"06:34:57","42.1","29.8","61.4","30.22","294","0","0","0.00","0.00"
"06:39:56","41.6","29.7","62.4","30.22","294","0","0","0.00","0.00"
"06:44:58","41.2","29.8","63.8","30.22","294","0","0","0.00","0.00"
"06:49:56","40.7","29.8","64.9","30.22","294","0","0","0.00","0.00"
"06:54:58","40.3","29.8","66","30.22","294","0","0","0.00","0.00"
"06:59:57","40","29.8","66.9","30.22","294","0","0","0.00","0.00"
"07:04:58","39.7","29.8","67.5","30.22","294","0","0","0.00","0.00"
"07:09:56","39.4","30","68.6","30.22","294","0","0","0.00","0.00"
"07:14:58","39.2","29.9","69","30.23","294","0","0","0.00","0.00"
"07:19:57","39","29.7","69","30.23","294","0","0","0.00","0.00"
"07:24:59","38.9","29.9","69.9","30.23","294","0","0","0.00","0.00"
"07:29:57","38.7","29.8","70.1","30.24","294","0","0","0.00","0.00"
"07:34:56","38.5","30.1","71.3","30.24","294","0","0","0.00","0.00"
"07:39:59","38.5","30.3","72","30.24","294","0","0","0.00","0.00"
"07:44:58","38.6","30.4","72","30.25","294","0","0","0.00","0.00"
"07:49:59","38.8","30.5","72.1","30.25","294","0","0","0.00","0.00"
"07:54:57","39.1","31","72.4","30.25","294","0","0","0.00","0.00"
"07:59:59","40","31.4","71.3","30.25","294","0","0","0.00","0.00"
"08:04:56","41.2","32.1","69.9","30.25","294","0","0","0.00","0.00"
"08:09:58","42.3","32.9","69.2","30.25","294","0","0","0.00","0.00"
"08:14:57","43.5","33.5","67.9","30.25","294","0","0","0.00","0.00"
"08:19:59","44.6","34.5","67.4","30.25","294","0","0","0.00","0.00"
"08:24:56","45.7","34.8","65.4","30.25","220","0.8","3.5","0.00","0.00"
"08:29:58","46.9","35.4","64","30.26","218","1.5","4","0.00","0.00"
"08:34:59","48.1","35.8","62.1","30.26","221","2","5","0.00","0.00"
"08:39:57","49.2","35.8","59.6","30.26","272","1.3","4","0.00","0.00"
"08:44:59","50.1","36.4","59.2","30.26","271","1.8","4","0.00","0.00"
"08:49:58","50.8","36.6","58.3","30.26","258","2.1","5","0.00","0.00"
"08:54:59","51.5","36.2","55.7","30.26","249","2.6","4.6","0.00","0.00"
"08:59:56","52.1","36.1","54.3","30.27","236","3.6","7","0.00","0.00"
"09:04:57","52.6","36.9","55.1","30.27","245","2.6","6.9","0.00","0.00"
"09:09:59","53.1","36.5","53.3","30.27","267","3.2","9.2","0.00","0.00"
"09:14:58","53.5","36.5","52.3","30.28","255","4","10.4","0.00","0.00"
"09:19:59","53.9","36.7","52.1","30.28","239","4.3","10.4","0.00","0.00"
"09:24:57","54.2","37.1","52.4","30.28","253","3.9","9.2","0.00","0.00"
"09:29:58","54.6","37.5","52.3","30.28","239","3.7","6","0.00","0.00"
"09:34:59","55","37.5","51.4","30.28","235","5","10.4","0.00","0.00"
"09:39:57","55.4","37.4","50.7","30.28","233","3.8","9.2","0.00","0.00"
"09:44:59","55.7","37.2","49.9","30.28","248","4.8","9","0.00","0.00"
"09:49:56","56","37.3","49.5","30.28","248","4.4","9.2","0.00","0.00"
"09:54:58","56.2","37.4","49.2","30.28","259","4.4","9","0.00","0.00"
"09:59:59","56.5","37.5","48.9","30.29","238","4.4","9.2","0.00","0.00"
"10:04:56","56.6","36.9","47.7","30.29","269","5.3","11.5","0.00","0.00"
"10:09:58","56.8","37.5","48.5","30.29","251","3.2","9","0.00","0.00"
"10:14:56","57.4","37.9","48.1","30.29","234","3.8","9.2","0.00","0.00"
"10:19:57","57.8","38.5","48.5","30.28","241","4.6","11.5","0.00","0.00"
"10:24:59","58.2","38.3","47.3","30.28","230","5.6","12","0.00","0.00"
"10:29:56","58.5","37.7","45.8","30.28","247","2.6","5.8","0.00","0.00"
"10:34:57","59","38.7","46.9","30.27","221","1.9","5","0.00","0.00"
"10:39:55","59.5","38.4","45.6","30.27","245","4.3","11.5","0.00","0.00"
"10:44:57","59.5","37.9","44.5","30.27","246","4.6","10.4","0.00","0.00"
"10:49:56","59.6","38","44.5","30.27","238","4.4","10.4","0.00","0.00"
"10:54:58","60.1","39","45.5","30.27","240","5.3","12","0.00","0.00"
"10:59:59","60.5","38.7","44.3","30.27","240","5.2","11.5","0.00","0.00"
"11:04:56","59.8","37.6","43.6","30.27","245","3.9","7","0.00","0.00"
"11:09:57","59.2","36.8","43.1","30.27","266","4.1","11.5","0.00","0.00"
"11:14:56","58.9","36.8","43.7","30.27","289","3.6","10.4","0.00","0.00"
"11:19:57","58.7","36.2","42.9","30.27","280","3.1","10.4","0.00","0.00"
"11:24:58","58.7","36.3","43.2","30.27","284","3.1","6.9","0.00","0.00"
"11:29:56","58.5","36.5","43.8","30.27","242","3.4","7","0.00","0.00"
"11:34:57","59.1","38.3","45.9","30.26","249","3","9.2","0.00","0.00"
"11:39:59","60.4","38.5","44.3","30.26","247","2.8","7","0.00","0.00"
"11:44:57","61.4","38.4","42.5","30.26","277","3.9","10.4","0.00","0.00"
"11:49:58","61.9","37","39.5","30.26","292","2.7","6","0.00","0.00"
"11:54:59","61.8","37.3","40.1","30.26","278","3.8","7","0.00","0.00"
"11:59:56","61.9","36.8","39.2","30.26","295","3.8","11.5","0.00","0.00"
"12:04:57","62.2","38.1","41","30.25","266","3.7","10.4","0.00","0.00"
"12:09:59","62.5","38","40.3","30.25","319","4.6","12","0.00","0.00"
"12:14:57","62.7","38.9","41.5","30.25","305","5.9","14","0.00","0.00"
"12:19:58","62.6","38.2","40.4","30.24","319","5.9","13.8","0.00","0.00"
"12:24:59","62.7","39","41.6","30.24","253","4.5","10.4","0.00","0.00"
"12:29:57","63","39.2","41.4","30.24","294","5","11.5","0.00","0.00"
"12:34:58","62.8","39.3","41.8","30.23","291","3.9","11.5","0.00","0.00"
"12:39:56","63.3","40.2","42.7","30.23","231","3.9","9.2","0.00","0.00"
"12:44:57","63.7","40.5","42.6","30.23","246","4.8","12","0.00","0.00"
"12:49:59","64","41.1","43.1","30.23","215","3.5","9.2","0.00","0.00"
"12:54:56","64.6","41.5","42.9","30.23","256","5.3","12","0.00","0.00"
"12:59:58","64.9","41","41.6","30.23","256","4","12","0.00","0.00"
"13:04:59","64.8","40.1","40.3","30.23","293","5.2","11.5","0.00","0.00"
"13:09:57","64.6","40.8","41.7","30.23","298","5.3","13","0.00","0.00"
"13:14:59","65","41.2","41.7","30.23","229","6.4","15","0.00","0.00"
"13:19:57","65.2","41.4","42","30.21","263","4.1","7","0.00","0.00"
"13:24:58","65.3","41.9","42.4","30.21","233","4.6","12","0.00","0.00"
"13:29:59","65.1","40.8","41","30.21","295","4.3","10.4","0.00","0.00"
"13:34:57","64.9","40.7","41.1","30.21","250","4.3","9.2","0.00","0.00"
"13:39:59","65","40.9","41.4","30.21","280","3.9","11.5","0.00","0.00"
"13:44:57","65.5","42","42.4","30.21","260","2.9","13","0.00","0.00"
"13:49:58","66.2","41.5","40.5","30.19","262","3.4","12.7","0.00","0.00"
"13:54:56","66.2","42.1","41.6","30.19","260","4.5","12","0.00","0.00"
"13:59:57","66.4","42.4","41.7","30.19","256","6.7","14","0.00","0.00"
"14:04:58","66.2","41.2","40.1","30.18","252","6","14","0.00","0.00"
"14:09:56","65.9","41.7","41.2","30.18","240","5.1","10.4","0.00","0.00"
"14:14:58","65.9","41.1","40.3","30.18","225","4.5","12","0.00","0.00"
"14:19:59","66.3","41.6","40.6","30.17","333","4.6","15","0.00","0.00"
"14:24:56","66.7","41.7","40.2","30.17","304","4.2","10.4","0.00","0.00"
"14:29:57","67.4","42.4","40.3","30.17","238","5.5","10.4","0.00","0.00"
"14:34:59","67.6","41","37.9","30.17","237","4.9","10.4","0.00","0.00"
"14:39:57","67.1","41.4","39.1","30.17","235","4.8","10.4","0.00","0.00"
"14:44:59","67.4","41","38.1","30.17","280","5.2","16.1","0.00","0.00"
"14:49:56","67.8","41.7","38.7","30.15","260","6.2","19.6","0.00","0.00"
"14:54:57","68.1","41.3","37.7","30.15","260","5.1","12","0.00","0.00"
"14:59:59","68.4","40.6","36.3","30.15","268","5.7","16.1","0.00","0.00"
"15:04:56","68.3","40.6","36.5","30.15","295","5.5","16.1","0.00","0.00"
"15:09:57","68.1","40.3","36.3","30.15","301","6.3","19.6","0.00","0.00"
"15:14:56","67.9","40.3","36.4","30.15","281","4.1","11.5","0.00","0.00"
"15:19:57","68.5","42.1","38.3","30.14","271","5.8","14","0.00","0.00"
"15:24:58","69.4","42.4","37.6","30.14","249","4.7","12","0.00","0.00"
"15:29:56","69.5","41.3","36","30.14","257","6.5","12","0.00","0.00"
"15:34:57","68.9","40.2","35.1","30.14","258","5.4","11.5","0.00","0.00"
"15:39:59","69.2","40.7","35.6","30.14","268","5.5","10.4","0.00","0.00"
"15:44:56","69.4","40.5","35","30.14","307","4.9","12","0.00","0.00"
"15:49:57","69.7","41","35.2","30.13","273","4.3","11.5","0.00","0.00"
"15:54:59","70.3","41","34.6","30.13","296","5.1","12","0.00","0.00"
"15:59:59","70.2","40","33.3","30.13","288","5.3","14","0.00","0.00"
"16:04:56","70","39.6","33.1","30.12","300","5.2","12","0.00","0.00"
"16:09:58","69.4","39","33","30.12","316","3.3","9.2","0.00","0.00"
"16:14:56","69.5","40","34.2","30.12","283","3.1","7","0.00","0.00"
"16:19:57","70.1","41","34.7","30.12","243","4.1","9.2","0.00","0.00"
"16:24:59","70.5","39.6","32.6","30.12","285","4.1","10.4","0.00","0.00"
"16:29:56","70.8","41.3","34.4","30.12","254","3.4","12","0.00","0.00"
"16:34:57","71.2","39.8","32","30.11","302","5.8","14","0.00","0.00"
"16:39:59","70.9","40.1","32.7","30.11","278","4.8","11","0.00","0.00"
"16:44:57","70.8","40.3","33.2","30.11","246","5","11.5","0.00","0.00"
"16:49:59","71.1","40.9","33.5","30.10","234","4.4","9.2","0.00","0.00"
"16:54:56","71.3","40.6","32.9","30.10","241","4.4","9","0.00","0.00"
"16:59:58","71.4","40.1","32.1","30.10","243","6.1","10.4","0.00","0.00"
"17:04:59","71.3","39","30.9","30.10","243","5.7","14","0.00","0.00"
"17:09:56","71.4","37.8","29.4","30.10","271","5.8","12","0.00","0.00"
"17:14:59","71.4","38.8","30.5","30.10","238","4.3","9.2","0.00","0.00"
"17:19:56","71.5","39.1","30.8","30.09","265","4","9.2","0.00","0.00"
"17:24:57","71.3","37.6","29.3","30.09","281","3.8","12","0.00","0.00"
"17:29:59","71.4","37.5","29","30.09","292","4.8","11.5","0.00","0.00"
"17:34:56","71.3","38.8","30.6","30.09","285","3.7","12","0.00","0.00"
"17:39:58","71.7","39.7","31.4","30.09","233","4.8","10.4","0.00","0.00"
"17:44:59","71.5","39.2","30.9","30.09","223","4.3","10.4","0.00","0.00"
"17:49:57","71.4","39.5","31.3","30.09","248","2.6","5","0.00","0.00"
"17:54:59","71.6","39.7","31.5","30.09","231","3.5","7","0.00","0.00"
"17:59:56","71.4","37.9","29.4","30.09","242","5","11.5","0.00","0.00"
"18:04:57","71.3","37.7","29.4","30.09","248","3.7","9.2","0.00","0.00"
"18:09:58","71.1","37.5","29.3","30.09","282","2.9","6.9","0.00","0.00"
"18:14:57","71","37","28.8","30.09","310","3.3","7","0.00","0.00"
"18:19:58","70.9","37.5","29.6","30.08","316","2.3","6.9","0.00","0.00"
"18:24:56","70.7","36.2","28.3","30.08","308","2.8","5.8","0.00","0.00"
"18:29:58","70.5","36","28.3","30.08","283","2","5","0.00","0.00"
"18:34:59","70.2","35.8","28.3","30.08","291","2.8","6","0.00","0.00"
"18:39:58","69.9","36.1","28.9","30.08","288","1.5","5.8","0.00","0.00"
"18:44:59","69.6","35.7","28.8","30.09","330","2.4","9","0.00","0.00"
"18:49:57","69.3","35.5","28.8","30.09","298","2.3","9.2","0.00","0.00"
"18:54:59","69","35.4","29","30.09","321","1.9","5.8","0.00","0.00"
"18:59:57","68.7","35.4","29.4","30.09","309","1.5","3.5","0.00","0.00"
"19:04:58","68.4","35.4","29.7","30.09","290","1.5","4","0.00","0.00"
"19:09:56","68.1","35.6","30.1","30.09","306","1.5","7","0.00","0.00"
"19:14:56","67.8","35.5","30.3","30.10","348","1.1","6.9","0.00","0.00"
"19:19:57","67.4","35.5","30.7","30.10","337","0.5","2.3","0.00","0.00"
"19:24:56","66.9","35.5","31.4","30.10","330","0.6","3","0.00","0.00"
"19:29:58","66.4","35.6","32","30.10","330","0","1.2","0.00","0.00"
"19:34:56","65.8","35.5","32.5","30.10","330","0.1","1.2","0.00","0.00"
"19:39:59","65.2","35.8","33.6","30.10","330","0","1.2","0.00","0.00"
"19:44:57","64.6","35.7","34.2","30.11","330","0.2","1.2","0.00","0.00"
"19:49:59","63.9","35.8","35.1","30.11","330","0","1.2","0.00","0.00"
"19:54:57","63.2","35.9","36.3","30.11","330","0.1","1.2","0.00","0.00"
"19:59:59","62.3","35.8","37.2","30.11","330","0","1.2","0.00","0.00"
"20:04:53","61.5","35.4","37.7","30.11","330","0","0","0.00","0.00"
"20:09:59","60.9","35.5","38.5","30.11","330","0.3","1.2","0.00","0.00"
"20:14:58","60.5","35.4","39","30.11","330","0.4","1.2","0.00","0.00"
"20:19:56","60.2","35.3","39.3","30.11","330","0","0","0.00","0.00"
"20:24:58","59.7","36.7","42.2","30.11","330","0","0","0.00","0.00"
"20:29:56","58.9","37.5","44.7","30.12","330","0","0","0.00","0.00"
"20:34:59","58.2","37.4","45.9","30.12","330","0","0","0.00","0.00"
"20:39:58","57.5","37.3","46.9","30.12","330","0","0","0.00","0.00"
"20:44:56","56.9","37","47.3","30.12","330","0.3","2","0.00","0.00"
"20:49:58","56.4","37.2","48.4","30.12","330","1.4","2.3","0.00","0.00"
"20:54:56","56.1","37.4","49.4","30.12","330","1.3","2.3","0.00","0.00"
"20:59:46","55.9","37.5","50","30.12","330","1","2.3","0.00","0.00"
"21:04:59","55.5","38.2","52.3","30.12","330","0","1.2","0.00","0.00"
"21:09:58","54.9","38.4","53.7","30.12","330","0","0","0.00","0.00"
"21:14:56","54.3","38.8","55.8","30.14","330","0","0","0.00","0.00"
"21:19:58","53.6","39","57.7","30.14","330","0","0","0.00","0.00"
"21:24:57","53","38.3","57.1","30.14","330","0","0","0.00","0.00"
"21:29:59","52.6","37.2","55.7","30.14","330","0","0","0.00","0.00"
"21:34:57","52.6","36.9","55.2","30.14","330","0","0","0.00","0.00"
"21:39:59","52.6","37","55.2","30.14","330","0","0","0.00","0.00"
"21:44:58","52.5","37.8","57.3","30.14","330","0","0","0.00","0.00"
"21:49:56","52.1","37.3","56.8","30.14","330","0.1","1.2","0.00","0.00"
"21:54:58","51.8","36.9","56.7","30.14","330","0.1","1.2","0.00","0.00"
"21:59:56","51.7","36.1","55.2","30.14","330","0.5","2.3","0.00","0.00"
"22:04:57","51.6","36.7","56.7","30.14","330","0.3","2.3","0.00","0.00"
"22:09:59","51.2","37.2","58.5","30.14","330","0.2","1.2","0.00","0.00"
"22:14:58","50.8","37.5","60.3","30.14","330","0","0","0.00","0.00"
"22:19:56","50.3","37.4","61.2","30.14","330","0","0","0.00","0.00"
"22:24:58","49.9","37.7","62.7","30.14","330","0","0","0.00","0.00"
"22:29:59","49.6","37.8","63.7","30.14","330","0","0","0.00","0.00"
"22:34:58","49.2","37.5","64","30.14","330","0","0","0.00","0.00"
"22:39:57","48.8","37.1","63.7","30.14","330","0","0","0.00","0.00"
"22:44:56","48.5","36.7","63.4","30.15","330","0","0","0.00","0.00"
"22:49:57","48.3","36.5","63.5","30.15","330","0.3","2.3","0.00","0.00"
"22:54:59","48.4","36.4","63","30.15","330","0.3","2.3","0.00","0.00"
"22:59:57","48.4","36.7","63.8","30.15","330","0","0","0.00","0.00"
"23:04:58","48.2","37.2","65.6","30.15","330","0","0","0.00","0.00"
"23:09:57","47.9","36.7","65.1","30.15","330","0","0","0.00","0.00"
"23:14:56","47.6","37.1","66.7","30.15","330","0","0","0.00","0.00"
"23:19:58","47.5","37.4","67.7","30.14","330","0","0","0.00","0.00"
"23:24:56","47.1","37.1","68","30.14","330","0","0","0.00","0.00"
"23:29:58","46.9","36.9","68","30.14","330","0","0","0.00","0.00"
"23:34:56","46.6","36.9","68.8","30.14","330","0","0","0.00","0.00"
"23:39:58","46.3","37.2","70.4","30.14","330","0","0","0.00","0.00"
"23:44:56","46","37.1","70.8","30.14","330","0","0","0.00","0.00"
"23:49:58","45.8","37.2","71.8","30.14","330","0","0","0.00","0.00"
"23:54:57","45.7","37.3","72.4","30.14","330","0","0","0.00","0.00"
"23:59:59","45.9","37.6","72.7","30.14","330","0","0","0.00","0.00"
